QPF
0.00 0.01 0.00 0.00 0.00 0.00 0.00 0.00 0.00 0.00 0.00 0.00 0.01 0.01 0.01 0.01 0.01 0.01 0.01 0.01 0.01 0.00 0.01 0.01 0.01 0.02 0.02 0.02 0.01 0.01 0.01 0.01 0.01 0.01 0.01 0.01 0.01 0.01 0.01 0.01 0.01 0.01 0.01 0.02
0.00 0.00 0.00 0.00 0.00 0.00 0.01 0.00 0.00 0.00 0.00 0.01 0.01 0.01 0.01 0.01 0.01 0.02 0.01 0.01 0.01 0.01 0.00 0.01 0.01 0.03 0.02 0.01 0.01 0.01 0.01 0.02 0.02 0.01 0.01 0.01 0.01 0.01 0.01 0.01 0.01 0.01 0.01 0.02
0.00 0.00 0.00 0.00 0.00 0.00 0.00 0.00 0.00 0.00 0.00 0.00 0.00 0.00 0.00 0.00 0.01 0.01 0.01 0.01 0.01 0.01 0.01 0.00 0.01 0.02 0.01 0.01 0.01 0.01 0.01 0.02 0.03 0.02 0.02 0.01 0.01 0.01 0.00 0.01 0.00 0.00 0.01 0.02
0.00 0.00 0.00 0.00 0.00 0.00 0.00 0.00 0.00 0.01 0.01 0.01 0.01 0.01 0.00 0.00 0.00 0.00 0.01 0.01 0.01 0.01 0.01 0.00 0.01 0.02 0.01 0.01 0.01 0.02 0.02 0.03 0.03 0.02 0.02 0.02 0.02 0.02 0.01 0.00 0.00 0.00 0.01 0.02
0.00 0.00 0.00 0.00 0.00 0.00 0.00 0.00 0.01 0.01 0.01 0.01 0.01 0.01 0.00 0.00 0.00 0.00 0.00 0.01 0.01 0.01 0.00 0.00 0.00 0.01 0.01 0.01 0.02 0.03 0.03 0.03 0.03 0.02 0.02 0.02 0.02 0.01 0.01 0.01 0.01 0.01 0.00 0.01
0.00 0.00 0.00 0.00 0.00 0.00 0.00 0.00 0.01 0.01 0.01 0.01 0.01 0.01 0.00 0.00 0.00 0.00 0.00 0.01 0.01 0.01 0.00 0.01 0.01 0.02 0.02 0.02 0.02 0.02 0.03 0.04 0.05 0.04 0.03 0.03 0.02 0.02 0.01 0.01 0.01 0.01 0.01 0.02
0.00 0.00 0.00 0.00 0.00 0.01 0.01 0.01 0.01 0.02 0.02 0.01 0.01 0.01 0.00 0.00 0.00 0.00 0.00 0.00 0.00 0.00 0.00 0.01 0.02 0.02 0.02 0.02 0.02 0.02 0.03 0.05 0.06 0.06 0.04 0.03 0.03 0.02 0.01 0.01 0.01 0.01 0.01 0.01
0.00 0.00 0.00 0.00 0.00 0.00 0.00 0.00 0.01 0.01 0.01 0.01 0.00 0.00 0.00 0.00 0.00 0.00 0.00 0.00 0.00 0.00 0.00 0.00 0.01 0.01 0.01 0.01 0.02 0.02 0.03 0.03 0.04 0.04 0.04 0.04 0.03 0.02 0.01 0.01 0.01 0.01 0.01 0.01
0.00 0.00 0.00 0.00 0.00 0.00 0.00 0.00 0.00 0.01 0.01 0.01 0.01 0.00 0.00 0.00 0.00 0.00 0.00 0.00 0.00 0.00 0.00 0.01 0.01 0.01 0.00 0.01 0.01 0.02 0.02 0.02 0.02 0.03 0.03 0.03 0.03 0.02 0.01 0.01 0.01 0.01 0.01 0.01
0.01 0.01 0.00 0.00 0.01 0.01 0.01 0.00 0.01 0.01 0.01 0.01 0.00 0.00 0.00 0.00 0.00 0.00 0.00 0.00 0.00 0.00 0.00 0.01 0.01 0.01 0.00 0.00 0.01 0.02 0.02 0.03 0.03 0.03 0.03 0.03 0.03 0.02 0.01 0.01 0.01 0.01 0.01 0.01
0.01 0.01 0.01 0.01 0.01 0.01 0.01 0.01 0.01 0.01 0.01 0.01 0.00 0.00 0.00 0.00 0.00 0.00 0.00 0.00 0.00 0.00 0.00 0.01 0.02 0.02 0.01 0.01 0.02 0.02 0.02 0.03 0.04 0.05 0.05 0.04 0.03 0.02 0.01 0.01 0.01 0.01 0.01 0.01
0.01 0.01 0.01 0.01 0.01 0.01 0.02 0.02 0.02 0.01 0.01 0.01 0.01 0.00 0.00 0.00 0.00 0.00 0.00 0.00 0.00 0.00 0.00 0.01 0.02 0.02 0.02 0.02 0.02 0.02 0.02 0.03 0.03 0.03 0.07 0.10 0.04 0.03 0.02 0.01 0.01 0.01 0.01 0.02
0.02 0.02 0.02 0.01 0.00 0.01 0.01 0.01 0.02 0.02 0.02 0.01 0.00 0.00 0.00 0.00 0.00 0.00 0.00 0.00 0.00 0.00 0.00 0.01 0.02 0.02 0.02 0.02 0.02 0.02 0.03 0.04 0.03 0.03 0.06 0.12 0.06 0.06 0.03 0.01 0.01 0.01 0.01 0.01
0.01 0.02 0.02 0.02 0.01 0.01 0.01 0.01 0.02 0.03 0.02 0.01 0.01 0.00 0.01 0.01 0.00 0.00 0.00 0.00 0.00 0.00 0.00 0.01 0.01 0.01 0.01 0.01 0.02 0.02 0.03 0.04 0.04 0.03 0.05 0.07 0.06 0.08 0.06 0.02 0.01 0.01 0.02 0.01
0.01 0.01 0.01 0.01 0.01 0.01 0.00 0.01 0.02 0.03 0.02 0.02 0.01 0.01 0.00 0.01 0.01 0.00 0.00 0.00 0.00 0.00 0.00 0.00 0.01 0.01 0.01 0.01 0.01 0.01 0.02 0.03 0.03 0.04 0.04 0.05 0.05 0.05 0.06 0.05 0.03 0.02 0.02 0.02
0.01 0.00 0.00 0.00 0.00 0.00 0.00 0.00 0.01 0.02 0.02 0.02 0.01 0.01 0.01 0.01 0.01 0.00 0.00 0.00 0.00 0.00 0.00 0.00 0.00 0.01 0.01 0.02 0.02 0.02 0.02 0.02 0.02 0.02 0.02 0.04 0.05 0.06 0.06 0.05 0.03 0.02 0.03 0.03
0.01 0.01 0.01 0.01 0.01 0.00 0.00 0.00 0.01 0.02 0.02 0.01 0.01 0.01 0.01 0.02 0.02 0.01 0.01 0.00 0.00 0.00 0.00 0.00 0.00 0.01 0.01 0.02 0.04 0.03 0.02 0.02 0.02 0.01 0.01 0.02 0.03 0.05 0.07 0.06 0.04 0.04 0.04 0.03
0.01 0.01 0.01 0.01 0.01 0.01 0.00 0.00 0.01 0.01 0.01 0.01 0.01 0.00 0.01 0.01 0.02 0.01 0.01 0.00 0.00 0.00 0.00 0.01 0.01 0.01 0.01 0.02 0.03 0.03 0.03 0.02 0.02 0.01 0.01 0.01 0.01 0.02 0.05 0.06 0.04 0.03 0.04 0.04
0.01 0.01 0.01 0.01 0.01 0.01 0.00 0.00 0.00 0.01 0.02 0.02 0.01 0.00 0.01 0.01 0.01 0.01 0.01 0.01 0.01 0.01 0.01 0.02 0.02 0.01 0.01 0.02 0.03 0.03 0.02 0.01 0.01 0.01 0.01 0.00 0.00 0.01 0.02 0.03 0.04 0.02 0.02 0.02
0.00 0.00 0.01 0.01 0.01 0.01 0.01 0.01 0.00 0.01 0.02 0.02 0.01 0.01 0.01 0.02 0.01 0.01 0.01 0.01 0.00 0.00 0.01 0.02 0.03 0.03 0.03 0.03 0.03 0.03 0.01 0.01 0.01 0.01 0.01 0.00 0.00 0.00 0.01 0.01 0.02 0.02 0.01 0.01
0.01 0.00 0.01 0.01 0.01 0.01 0.01 0.00 0.00 0.01 0.02 0.01 0.01 0.01 0.01 0.02 0.01 0.00 0.00 0.00 0.00 0.00 0.00 0.00 0.01 0.02 0.02 0.02 0.03 0.03 0.01 0.01 0.01 0.01 0.01 0.01 0.00 0.00 0.01 0.01 0.02 0.02 0.01 0.01
0.01 0.01 0.01 0.01 0.01 0.01 0.00 0.00 0.00 0.01 0.01 0.00 0.00 0.01 0.02 0.01 0.01 0.01 0.00 0.00 0.00 0.00 0.00 0.00 0.00 0.00 0.01 0.01 0.01 0.02 0.02 0.02 0.02 0.01 0.01 0.01 0.01 0.01 0.01 0.01 0.02 0.02 0.02 0.02
0.01 0.00 0.00 0.00 0.01 0.00 0.00 0.00 0.00 0.00 0.01 0.00 0.00 0.01 0.01 0.01 0.01 0.01 0.00 0.00 0.00 0.00 0.00 0.00 0.00 0.00 0.00 0.01 0.01 0.01 0.02 0.02 0.01 0.01 0.01 0.01 0.01 0.01 0.01 0.01 0.02 0.03 0.03 0.02
0.01 0.00 0.00 0.01 0.01 0.01 0.01 0.00 0.00 0.00 0.00 0.01 0.01 0.01 0.01 0.00 0.00 0.00 0.00 0.00 0.00 0.00 0.00 0.00 0.01 0.01 0.01 0.01 0.01 0.01 0.01 0.02 0.02 0.01 0.01 0.01 0.01 0.01 0.02 0.02 0.02 0.03 0.04 0.04
0.01 0.01 0.01 0.01 0.00 0.01 0.00 0.00 0.00 0.00 0.00 0.00 0.01 0.01 0.01 0.01 0.01 0.00 0.00 0.00 0.00 0.00 0.00 0.00 0.00 0.01 0.01 0.01 0.01 0.01 0.01 0.01 0.01 0.01 0.01 0.01 0.01 0.01 0.02 0.02 0.02 0.02 0.03 0.04
0.01 0.01 0.02 0.01 0.01 0.01 0.01 0.00 0.01 0.01 0.01 0.01 0.01 0.02 0.02 0.01 0.01 0.00 0.00 0.00 0.00 0.00 0.00 0.00 0.00 0.01 0.01 0.01 0.01 0.01 0.01 0.01 0.01 0.01 0.01 0.01 0.02 0.01 0.01 0.02 0.02 0.02 0.02 0.02
MSLP
1009.30 1009.73 1010.11 1010.44 1010.71 1010.92 1011.07 1011.14 1011.13 1011.03 1010.82 1010.50 1010.08 1009.58 1009.02 1008.45 1007.92 1007.44 1007.05 1006.74 1006.53 1006.42 1006.39 1006.45 1006.62 1006.91 1007.33 1007.89 1008.57 1009.36 1010.19 1011.03 1011.79 1012.44 1012.96 1013.33 1013.59 1013.80 1014.00 1014.27 1014.64 1015.13 1015.73 1016.41
1009.05 1009.36 1009.65 1009.92 1010.18 1010.44 1010.67 1010.87 1010.98 1010.98 1010.84 1010.54 1010.08 1009.50 1008.84 1008.16 1007.51 1006.95 1006.50 1006.17 1005.96 1005.84 1005.81 1005.86 1005.99 1006.23 1006.60 1007.11 1007.78 1008.58 1009.47 1010.40 1011.29 1012.08 1012.73 1013.23 1013.58 1013.83 1014.04 1014.29 1014.63 1015.08 1015.66 1016.34
1008.51 1008.68 1008.86 1009.07 1009.33 1009.64 1009.99 1010.33 1010.60 1010.75 1010.71 1010.45 1009.99 1009.35 1008.60 1007.80 1007.04 1006.39 1005.87 1005.50 1005.27 1005.14 1005.11 1005.15 1005.26 1005.47 1005.80 1006.28 1006.92 1007.73 1008.68 1009.69 1010.69 1011.61 1012.40 1013.01 1013.46 1013.77 1014.02 1014.27 1014.58 1015.02 1015.58 1016.25
1007.75 1007.74 1007.79 1007.92 1008.17 1008.55 1009.01 1009.51 1009.96 1010.26 1010.35 1010.17 1009.73 1009.05 1008.22 1007.32 1006.46 1005.71 1005.11 1004.70 1004.44 1004.32 1004.30 1004.34 1004.46 1004.65 1004.96 1005.43 1006.06 1006.88 1007.86 1008.93 1010.02 1011.05 1011.95 1012.68 1013.22 1013.60 1013.89 1014.16 1014.48 1014.91 1015.47 1016.14
1006.89 1006.70 1006.60 1006.63 1006.86 1007.27 1007.83 1008.47 1009.07 1009.53 1009.75 1009.66 1009.25 1008.56 1007.67 1006.69 1005.73 1004.89 1004.22 1003.77 1003.51 1003.40 1003.41 1003.49 1003.64 1003.86 1004.18 1004.64 1005.28 1006.09 1007.08 1008.18 1009.33 1010.43 1011.41 1012.22 1012.85 1013.31 1013.65 1013.96 1014.30 1014.74 1015.31 1016.00
1006.16 1005.78 1005.50 1005.42 1005.58 1005.99 1006.61 1007.34 1008.06 1008.64 1008.96 1008.94 1008.57 1007.87 1006.94 1005.89 1004.85 1003.94 1003.24 1002.76 1002.51 1002.45 1002.52 1002.68 1002.90 1003.18 1003.54 1004.02 1004.65 1005.45 1006.42 1007.52 1008.66 1009.79 1010.81 1011.68 1012.36 1012.88 1013.29 1013.64 1014.02 1014.49 1015.09 1015.81
1005.78 1005.20 1004.76 1004.54 1004.60 1004.95 1005.55 1006.31 1007.08 1007.71 1008.08 1008.10 1007.74 1007.03 1006.07 1004.97 1003.88 1002.93 1002.20 1001.74 1001.54 1001.55 1001.72 1001.99 1002.31 1002.68 1003.10 1003.61 1004.24 1005.02 1005.94 1006.98 1008.08 1009.17 1010.19 1011.07 1011.79 1012.35 1012.81 1013.22 1013.65 1014.16 1014.79 1015.55
1005.91 1005.17 1004.56 1004.19 1004.11 1004.35 1004.86 1005.55 1006.28 1006.88 1007.24 1007.24 1006.86 1006.13 1005.13 1004.00 1002.89 1001.93 1001.22 1000.79 1000.66 1000.77 1001.07 1001.47 1001.93 1002.41 1002.91 1003.46 1004.08 1004.81 1005.66 1006.61 1007.62 1008.63 1009.59 1010.44 1011.16 1011.76 1012.26 1012.72 1013.20 1013.76 1014.43 1015.22
1006.61 1005.75 1005.00 1004.47 1004.24 1004.31 1004.66 1005.20 1005.79 1006.28 1006.54 1006.47 1006.03 1005.25 1004.22 1003.08 1001.97 1001.02 1000.35 999.99 999.95 1000.18 1000.61 1001.16 1001.75 1002.35 1002.93 1003.52 1004.13 1004.81 1005.56 1006.39 1007.28 1008.18 1009.05 1009.85 1010.55 1011.15 1011.69 1012.19 1012.72 1013.32 1014.02 1014.83
1007.82 1006.88 1006.03 1005.37 1004.95 1004.83 1004.97 1005.29 1005.67 1005.98 1006.07 1005.87 1005.34 1004.50 1003.45 1002.30 1001.21 1000.30 999.68 999.40 999.45 999.79 1000.35 1001.03 1001.74 1002.44 1003.10 1003.72 1004.32 1004.93 1005.59 1006.29 1007.05 1007.82 1008.59 1009.32 1009.99 1010.60 1011.15 1011.69 1012.25 1012.88 1013.60 1014.42
1009.32 1008.37 1007.47 1006.69 1006.12 1005.79 1005.69 1005.76 1005.89 1005.96 1005.85 1005.50 1004.86 1003.96 1002.88 1001.74 1000.68 999.83 999.27 999.05 999.18 999.61 1000.25 1001.02 1001.83 1002.60 1003.31 1003.95 1004.53 1005.09 1005.65 1006.25 1006.88 1007.55 1008.23 1008.90 1009.53 1010.13 1010.71 1011.28 1011.87 1012.51 1013.22 1014.01
1010.81 1009.91 1009.00 1008.16 1007.46 1006.95 1006.62 1006.44 1006.31 1006.14 1005.84 1005.33 1004.59 1003.65 1002.57 1001.45 1000.44 999.63 999.12 998.96 999.13 999.59 1000.27 1001.08 1001.92 1002.73 1003.46 1004.10 1004.66 1005.17 1005.67 1006.19 1006.74 1007.33 1007.94 1008.56 1009.19 1009.79 1010.39 1010.98 1011.58 1012.22 1012.91 1013.66
1012.02 1011.20 1010.33 1009.47 1008.69 1008.05 1007.54 1007.15 1006.80 1006.43 1005.96 1005.34 1004.53 1003.57 1002.51 1001.45 1000.49 999.74 999.26 999.11 999.27 999.72 1000.37 1001.15 1001.97 1002.76 1003.47 1004.10 1004.64 1005.12 1005.59 1006.06 1006.57 1007.11 1007.70 1008.31 1008.94 1009.56 1010.18 1010.79 1011.40 1012.03 1012.69 1013.39
1012.72 1012.01 1011.21 1010.38 1009.59 1008.87 1008.25 1007.71 1007.22 1006.72 1006.15 1005.47 1004.65 1003.72 1002.72 1001.73 1000.84 1000.14 999.68 999.50 999.62 999.98 1000.55 1001.23 1001.96 1002.68 1003.34 1003.92 1004.44 1004.91 1005.36 1005.83 1006.33 1006.88 1007.47 1008.11 1008.76 1009.41 1010.06 1010.69 1011.31 1011.92 1012.54 1013.18
1012.84 1012.24 1011.53 1010.78 1010.01 1009.29 1008.64 1008.04 1007.49 1006.94 1006.35 1005.68 1004.92 1004.07 1003.17 1002.28 1001.47 1000.81 1000.35 1000.13 1000.15 1000.39 1000.80 1001.33 1001.92 1002.52 1003.08 1003.61 1004.09 1004.55 1005.00 1005.49 1006.02 1006.60 1007.23 1007.90 1008.59 1009.28 1009.96 1010.62 1011.24 1011.85 1012.43 1013.01
1012.43 1011.92 1011.32 1010.65 1009.96 1009.30 1008.68 1008.11 1007.58 1007.07 1006.54 1005.95 1005.30 1004.58 1003.82 1003.06 1002.34 1001.73 1001.26 1000.97 1000.87 1000.94 1001.17 1001.51 1001.91 1002.34 1002.78 1003.22 1003.65 1004.09 1004.55 1005.06 1005.63 1006.26 1006.94 1007.66 1008.39 1009.13 1009.84 1010.52 1011.15 1011.75 1012.31 1012.86
1011.66 1011.22 1010.70 1010.13 1009.55 1008.98 1008.45 1007.97 1007.54 1007.13 1006.72 1006.27 1005.78 1005.23 1004.63 1004.00 1003.39 1002.82 1002.34 1001.98 1001.75 1001.64 1001.66 1001.78 1001.97 1002.22 1002.51 1002.83 1003.19 1003.59 1004.05 1004.58 1005.18 1005.85 1006.58 1007.34 1008.12 1008.89 1009.64 1010.34 1010.99 1011.59 1012.15 1012.67
1010.77 1010.36 1009.90 1009.41 1008.93 1008.48 1008.08 1007.73 1007.43 1007.17 1006.91 1006.64 1006.32 1005.95 1005.52 1005.03 1004.52 1004.01 1003.52 1003.09 1002.73 1002.46 1002.27 1002.17 1002.15 1002.20 1002.31 1002.50 1002.77 1003.11 1003.55 1004.07 1004.69 1005.38 1006.14 1006.94 1007.75 1008.55 1009.32 1010.05 1010.72 1011.33 1011.89 1012.42
1009.97 1009.55 1009.12 1008.70 1008.31 1007.97 1007.69 1007.47 1007.32 1007.21 1007.12 1007.01 1006.87 1006.66 1006.39 1006.04 1005.62 1005.16 1004.68 1004.20 1003.73 1003.31 1002.94 1002.64 1002.42 1002.27 1002.22 1002.26 1002.42 1002.68 1003.07 1003.57 1004.17 1004.87 1005.64 1006.45 1007.28 1008.11 1008.90 1009.65 1010.34 1010.98 1011.56 1012.10
1009.40 1008.94 1008.51 1008.12 1007.79 1007.54 1007.37 1007.27 1007.25 1007.27 1007.31 1007.35 1007.34 1007.28 1007.13 1006.89 1006.56 1006.16 1005.69 1005.17 1004.63 1004.10 1003.59 1003.12 1002.72 1002.41 1002.20 1002.10 1002.14 1002.31 1002.62 1003.07 1003.65 1004.33 1005.09 1005.91 1006.76 1007.60 1008.42 1009.18 1009.90 1010.56 1011.16 1011.72
1009.10 1008.58 1008.12 1007.73 1007.44 1007.24 1007.14 1007.13 1007.20 1007.32 1007.45 1007.59 1007.68 1007.71 1007.65 1007.50 1007.23 1006.87 1006.42 1005.90 1005.32 1004.72 1004.11 1003.53 1003.00 1002.55 1002.21 1001.98 1001.91 1001.98 1002.22 1002.61 1003.14 1003.80 1004.55 1005.37 1006.22 1007.08 1007.91 1008.70 1009.44 1010.11 1010.74 1011.31
1009.00 1008.41 1007.90 1007.50 1007.21 1007.04 1006.98 1007.02 1007.14 1007.30 1007.49 1007.67 1007.81 1007.89 1007.88 1007.77 1007.56 1007.23 1006.81 1006.30 1005.72 1005.09 1004.43 1003.79 1003.18 1002.64 1002.19 1001.87 1001.70 1001.69 1001.86 1002.19 1002.68 1003.31 1004.05 1004.86 1005.72 1006.59 1007.45 1008.25 1009.01 1009.70 1010.33 1010.91
1008.97 1008.32 1007.77 1007.34 1007.04 1006.87 1006.82 1006.88 1007.01 1007.19 1007.39 1007.57 1007.71 1007.80 1007.80 1007.71 1007.52 1007.23 1006.84 1006.36 1005.80 1005.18 1004.52 1003.86 1003.22 1002.63 1002.13 1001.74 1001.51 1001.43 1001.54 1001.82 1002.28 1002.89 1003.61 1004.43 1005.30 1006.19 1007.06 1007.88 1008.65 1009.34 1009.97 1010.54
1008.90 1008.19 1007.60 1007.15 1006.84 1006.67 1006.62 1006.68 1006.80 1006.96 1007.14 1007.29 1007.41 1007.47 1007.46 1007.36 1007.18 1006.91 1006.55 1006.11 1005.60 1005.03 1004.41 1003.77 1003.13 1002.54 1002.02 1001.61 1001.33 1001.21 1001.28 1001.54 1001.97 1002.56 1003.28 1004.10 1004.98 1005.88 1006.76 1007.59 1008.36 1009.05 1009.67 1010.21
1008.66 1007.92 1007.32 1006.86 1006.56 1006.39 1006.35 1006.40 1006.51 1006.65 1006.79 1006.90 1006.98 1006.99 1006.94 1006.83 1006.64 1006.39 1006.07 1005.68 1005.22 1004.71 1004.15 1003.56 1002.97 1002.40 1001.89 1001.48 1001.19 1001.06 1001.10 1001.33 1001.74 1002.32 1003.04 1003.86 1004.74 1005.65 1006.53 1007.37 1008.13 1008.81 1009.40 1009.92
1008.21 1007.49 1006.91 1006.48 1006.20 1006.06 1006.04 1006.10 1006.21 1006.32 1006.43 1006.50 1006.52 1006.48 1006.40 1006.25 1006.06 1005.81 1005.52 1005.17 1004.78 1004.33 1003.84 1003.32 1002.79 1002.27 1001.79 1001.39 1001.11 1000.97 1001.00 1001.21 1001.60 1002.16 1002.86 1003.67 1004.55 1005.45 1006.32 1007.15 1007.90 1008.56 1009.13 1009.63
Thickness
5745 5738 5732 5735 5737 5737 5733 5728 5723 5726 5734 5729 5725 5726 5731 5733 5730 5729 5730 5730 5729 5730 5731 5730 5728 5725 5722 5720 5718 5716 5713 5711 5709 5706 5704 5702 5701 5700 5699 5697 5696 5694 5694 5693
5733 5729 5737 5739 5736 5732 5729 5723 5722 5724 5729 5726 5723 5723 5730 5731 5729 5730 5730 5730 5729 5728 5727 5725 5724 5721 5719 5717 5715 5713 5711 5708 5706 5704 5702 5700 5698 5696 5695 5693 5691 5690 5690 5688
5727 5732 5736 5731 5727 5724 5724 5722 5721 5719 5721 5723 5718 5717 5724 5729 5730 5729 5729 5729 5729 5726 5724 5723 5721 5719 5717 5714 5712 5711 5708 5707 5704 5702 5699 5696 5694 5693 5691 5689 5687 5686 5685 5684
5726 5731 5728 5724 5722 5723 5717 5726 5722 5717 5712 5712 5714 5706 5721 5726 5724 5724 5724 5725 5725 5724 5723 5721 5719 5717 5715 5713 5712 5710 5707 5705 5702 5699 5696 5693 5690 5688 5687 5686 5684 5682 5681 5679
5721 5724 5722 5718 5721 5723 5722 5724 5720 5716 5713 5709 5712 5706 5717 5722 5717 5721 5723 5723 5723 5722 5721 5719 5718 5716 5714 5712 5709 5707 5704 5702 5699 5697 5693 5691 5689 5686 5685 5683 5680 5679 5677 5675
5722 5726 5725 5723 5724 5724 5721 5717 5713 5712 5710 5697 5708 5703 5706 5718 5718 5720 5721 5721 5721 5721 5719 5717 5716 5714 5711 5708 5705 5703 5701 5698 5695 5693 5691 5689 5686 5683 5680 5678 5676 5675 5674 5671
5709 5715 5721 5723 5715 5716 5716 5706 5694 5690 5690 5696 5707 5700 5706 5718 5720 5719 5718 5718 5719 5718 5717 5714 5711 5708 5705 5703 5701 5699 5697 5694 5693 5690 5689 5686 5684 5681 5678 5676 5674 5672 5670 5668
5698 5700 5712 5716 5715 5711 5712 5709 5694 5684 5687 5696 5698 5696 5710 5717 5717 5717 5717 5716 5715 5714 5713 5710 5708 5705 5703 5700 5698 5696 5694 5692 5690 5688 5686 5684 5681 5678 5676 5673 5672 5669 5668 5666
5697 5698 5710 5712 5715 5714 5706 5705 5711 5701 5695 5689 5697 5702 5709 5712 5711 5710 5710 5709 5708 5708 5707 5705 5704 5702 5700 5697 5695 5693 5692 5690 5687 5685 5683 5681 5678 5675 5673 5671 5669 5667 5665 5662
5698 5691 5700 5704 5707 5704 5708 5707 5699 5691 5679 5679 5688 5693 5699 5703 5704 5704 5704 5703 5703 5703 5702 5701 5699 5698 5697 5695 5693 5691 5689 5687 5684 5682 5680 5677 5674 5672 5669 5667 5665 5663 5661 5659
5692 5687 5688 5694 5693 5694 5694 5694 5694 5692 5689 5681 5680 5690 5707 5704 5703 5701 5701 5700 5699 5698 5697 5696 5695 5694 5692 5691 5689 5687 5685 5683 5680 5678 5676 5673 5671 5668 5666 5663 5661 5659 5657 5655
5684 5684 5680 5685 5692 5694 5694 5693 5690 5681 5681 5683 5680 5687 5701 5701 5700 5699 5698 5697 5696 5694 5693 5692 5690 5689 5687 5686 5685 5684 5682 5679 5676 5674 5672 5669 5667 5664 5662 5659 5657 5655 5653 5651
5676 5674 5668 5671 5676 5681 5681 5682 5684 5685 5682 5679 5673 5682 5696 5696 5695 5694 5693 5692 5691 5689 5688 5687 5685 5683 5682 5681 5679 5679 5677 5674 5672 5669 5667 5664 5662 5659 5657 5655 5653 5651 5649 5647
5670 5670 5668 5664 5671 5675 5672 5671 5673 5675 5673 5674 5677 5681 5688 5687 5687 5687 5687 5686 5686 5684 5683 5681 5679 5678 5676 5675 5675 5674 5672 5669 5667 5664 5662 5659 5657 5654 5652 5650 5648 5646 5644 5642
5665 5662 5665 5666 5667 5668 5667 5667 5667 5667 5672 5670 5676 5676 5682 5683 5683 5683 5681 5680 5678 5677 5676 5675 5674 5673 5671 5669 5669 5668 5666 5664 5662 5659 5657 5654 5652 5650 5647 5644 5642 5641 5639 5637
5657 5656 5657 5655 5658 5659 5658 5662 5663 5664 5667 5668 5669 5671 5680 5679 5679 5676 5676 5673 5671 5671 5671 5671 5670 5668 5666 5665 5664 5663 5661 5659 5658 5655 5652 5650 5647 5644 5642 5639 5637 5635 5633 5632
5648 5649 5647 5649 5651 5650 5649 5660 5661 5662 5666 5665 5663 5670 5672 5669 5668 5669 5669 5668 5667 5666 5665 5664 5664 5663 5662 5661 5660 5657 5656 5655 5653 5650 5647 5645 5642 5639 5636 5633 5631 5629 5628 5626
5642 5641 5641 5641 5639 5633 5656 5663 5661 5657 5660 5663 5663 5665 5664 5663 5663 5664 5665 5663 5662 5661 5659 5659 5659 5658 5657 5656 5654 5653 5651 5649 5647 5644 5641 5639 5636 5633 5630 5627 5625 5623 5622 5621
5639 5636 5633 5632 5632 5640 5649 5652 5651 5648 5651 5657 5656 5656 5656 5656 5655 5657 5659 5658 5657 5656 5654 5654 5654 5653 5652 5650 5649 5647 5645 5643 5640 5638 5636 5633 5630 5627 5624 5621 5619 5618 5617 5615
5628 5631 5629 5626 5622 5627 5641 5647 5648 5645 5642 5651 5649 5648 5647 5648 5646 5651 5652 5650 5650 5649 5648 5648 5648 5647 5645 5644 5642 5640 5639 5637 5635 5633 5631 5628 5625 5622 5619 5617 5615 5613 5611 5609
5618 5618 5619 5620 5619 5629 5637 5637 5638 5629 5637 5641 5643 5642 5640 5640 5643 5644 5644 5643 5642 5641 5641 5641 5640 5639 5638 5637 5635 5634 5633 5631 5630 5628 5625 5623 5621 5617 5615 5613 5611 5609 5607 5605
5615 5613 5613 5614 5612 5619 5629 5628 5627 5629 5633 5634 5634 5634 5632 5632 5632 5633 5633 5634 5634 5633 5633 5633 5633 5632 5631 5630 5629 5628 5627 5626 5623 5621 5619 5618 5616 5613 5610 5608 5605 5604 5602 5600
5609 5613 5615 5614 5616 5621 5621 5622 5622 5623 5623 5624 5625 5625 5624 5623 5623 5624 5625 5626 5626 5626 5626 5626 5625 5624 5624 5624 5623 5622 5621 5618 5616 5614 5613 5611 5610 5607 5605 5602 5600 5598 5597 5596
5603 5602 5604 5606 5611 5613 5613 5614 5614 5615 5615 5615 5616 5616 5617 5617 5617 5616 5618 5619 5618 5618 5618 5619 5618 5617 5617 5617 5616 5616 5614 5612 5610 5608 5607 5606 5604 5601 5598 5596 5594 5592 5591 5590
5595 5595 5597 5600 5604 5603 5604 5605 5606 5606 5607 5607 5608 5609 5609 5610 5610 5610 5611 5612 5611 5611 5611 5611 5611 5611 5610 5610 5609 5608 5607 5605 5603 5602 5601 5599 5597 5594 5592 5590 5587 5586 5585 5583
5589 5589 5591 5594 5599 5598 5598 5599 5599 5598 5598 5599 5600 5601 5602 5602 5602 5603 5604 5605 5605 5604 5604 5604 5604 5604 5604 5603 5602 5600 5599 5597 5596 5595 5593 5592 5589 5587 5585 5583 5580 5576 5575 5573